Regional Weather Roundup
Issued by NWS Little Rock, AR

Home | Current Version | Previous Version | Text Only | Print | Product List | Glossary On
Versions: 1 2 3 4 5 6 7 8 9 10 11 12 13 14 15 16 17 18 19 20 21 22 23 24 25 26 27
000
ASUS44 KLZK 250805
RWRLZK

WEATHER ROUNDUP FOR ARKANSAS
NATIONAL WEATHER SERVICE LITTLE ROCK AR
300 AM CDT MON JUL 25 2016

NOTE: "FAIR" INDICATES FEW OR NO CLOUDS BELOW 12,000 FEET WITH NO
SIGNIFICANT WEATHER AND/OR OBSTRUCTIONS TO VISIBILITY.

ARZ001-003-010-029-250900-
NORTHWEST ARKANSAS

CITY           SKY/WX    TMP DP  RH WIND       PRES   REMARKS
FAYETTEVILLE   CLEAR     73  71  93 E3        29.99S
FORT SMITH     CLEAR     77  71  82 CALM      29.95S
HARRISON       CLEAR     74  71  91 CALM      30.01R
BENTONVILLE    CLEAR     75  66  73 S3        30.00S
ROGERS         CLEAR     76  70  82 SE3       30.01R
SILOAM SPGS    CLEAR     75  63  64 S3        30.00R
HIGHFILL       CLEAR     77  71  82 S3        29.99S
$$

ARZ004-005-016-250900-
NORTH CENTRAL ARKANSAS

CITY           SKY/WX    TMP DP  RH WIND       PRES   REMARKS
BATESVILLE     CLEAR     75  72  88 CALM      29.97R
FLIPPIN        CLEAR     75  72  88 N3        29.96R
MTN HOME       CLEAR     75  74  96 CALM      29.98R
$$

ARZ040-041-250900-
WEST CENTRAL ARKANSAS

CITY           SKY/WX    TMP DP  RH WIND       PRES   REMARKS
MENA           MOCLDY    77  73  88 W3        29.99S
MOUNT IDA      PTCLDY    72  72 100 CALM      29.96R
$$

ARZ009-017-025-026-028-250900-
NORTHEAST ARKANSAS

CITY           SKY/WX    TMP DP  RH WIND       PRES   REMARKS
CORNING          N/A     77  77 100 CALM      29.98R
JONESBORO      MOCLDY    77  75  93 E5        29.97R
NEWPORT        CLEAR     78  76  94 S3        29.97R
WALNUT RIDGE   CLEAR     77  73  88 CALM      29.96R
BLYTHEVILLE    PTCLDY    79  76  90 E3        29.98R
$$

ARZ022-023-033-042-044-250900-
CENTRAL ARKANSAS

CITY           SKY/WX    TMP DP  RH WIND       PRES   REMARKS
LITTLE ROCK    PTCLDY    78  71  79 W5        29.96R
N LITTLE ROCK    N/A     74  70  88 CALM      29.93S
JACKSONVILLE   MOCLDY    75  73  92 SW1       29.95S
SEARCY         PTCLDY    75  72  90 CALM      29.97S
HOT SPRINGS    CLEAR     74  72  93 CALM      29.97F
RUSSELLVILLE   CLEAR     72  70  93 CALM      29.95S
$$

ARZ036-250900-
EAST ARKANSAS

CITY           SKY/WX    TMP DP  RH WIND       PRES   REMARKS
WEST MEMPHIS   CLEAR     77  76  96 S3        29.95S
$$

ARZ050-053-066-070-073-250900-
SOUTHWEST ARKANSAS

CITY           SKY/WX    TMP DP  RH WIND       PRES   REMARKS
CAMDEN         PTCLDY    73  70  88 CALM      29.96S
TEXARKANA      CLEAR     74  70  87 SE6       29.97R
EL DORADO      PTCLDY    73  72  96 CALM      29.98R
DE QUEEN       CLOUDY    75  75 100 CALM      29.94F FOG
$$

ARZ056-057-069-250900-
SOUTHEAST ARKANSAS

CITY           SKY/WX    TMP DP  RH WIND       PRES   REMARKS
PINE BLUFF     PTCLDY    75  74  96 CALM      29.95F
STUTTGART      CLOUDY    79  70  73 CALM      29.95F
MONTICELLO     CLEAR     75  73  93 CALM      29.97S

$$






USA.gov is the U.S. government's official web portal to all federal, state and local government web resources and services.